Location: Caltech
(34.1382°N, 118.1253°W)
Time: 14:27:27
(UTC-07:00)

Iridium 21 - Visible Passes

Search period start: 31 July 2015 00:00
Search period end: 10 August 2015 00:00
Orbit: 776 x 779 km, 86.4° (Epoch: 31 July)

Date Brightness Start Highest point End Pass type
(mag) Time Alt. Az. Time Alt. Az. Time Alt. Az.
31 Jul 7.8 01:13:00 10° NNE 01:15:05 19° NE 01:15:05 19° NE visible
31 Jul 7.3 02:53:23 10° NNW 02:55:32 21° NW 02:55:32 21° NW visible
01 Aug 8.2 00:41:13 10° NE 00:41:27 10° NE 00:41:27 10° NE visible
01 Aug 7.2 02:19:23 10° N 02:21:54 28° NNW 02:21:54 28° NNW visible
02 Aug 7.3 01:45:49 10° N 01:48:17 28° N 01:48:17 28° N visible
03 Aug 7.7 01:12:38 10° NNE 01:14:40 21° NNE 01:14:40 21° NNE visible
03 Aug 7.8 02:54:03 10° NW 02:55:07 14° NW 02:55:07 14° NW visible
04 Aug 8.1 00:40:03 10° NE 00:41:03 14° NE 00:41:03 14° NE visible
04 Aug 7.6 02:19:42 10° NNW 02:21:31 20° NNW 02:21:31 20° NNW visible
05 Aug 7.5 01:45:54 10° N 01:47:55 24° N 01:47:55 24° N visible
06 Aug 7.7 01:12:28 10° N 01:14:19 22° NNE 01:14:19 22° NNE visible
07 Aug 8.0 00:39:29 10° NNE 00:40:44 16° NNE 00:40:44 16° NNE visible
07 Aug 7.9 02:20:13 10° NNW 02:21:11 14° NW 02:21:11 14° NW visible
08 Aug 7.8 01:46:07 10° NNW 01:47:37 19° NNW 01:47:37 19° NNW visible
09 Aug 7.8 01:12:27 10° N 01:14:02 20° N 01:14:02 20° N visible
